Weather History for Kirksville, MO

Change the Weather History Date:

Tuesday, December 25, 2012

  Actual Average Record
Temperature  
Mean Temperature 17 °F 27 °F  
Max Temperature 21 °F 35 °F 63 °F (1936)
Min Temperature 13 °F 19 °F -15 °F (1983)
Degree Days  
Heating Degree Days 48 38  
Month to date heating degree days 727 891  
Since 1 July heating degree days 1997 2112  
Cooling Degree Days 0 0  
Month to date cooling degree days 0 0  
Year to date cooling degree days 1321 939  
Moisture  
Dew Point 11 °F    
Average Humidity 78    
Maximum Humidity 88    
Minimum Humidity 68    
Precipitation  
Precipitation 0.00 in 0.04 in 1.46 in (1957)
Month to date precipitation 1.67 1.50  
Year to date precipitation 28.09 39.06  
Sea Level Pressure  
Sea Level Pressure 30.30 in    
Wind  
Wind Speed 13 mph (North)    
Max Wind Speed 20 mph    
Max Gust Speed 25 mph    
Visibility 10 miles    
Events      
T = Trace of Precipitation, MM = Missing Value Source: NWS Daily Summary

Daily Weather History Graph

Daily Weather History Graph

Search for Another Location

Airport:

Trip Planner

Search our weather history database for the weather conditions in past years. The results will help you decide how hot, cold, wet, or windy it might be!

Date:

Astronomy

Dec. 25, 2012 Rise Set
Actual Time 7:30 AM CST 4:50 PM CST
Civil Twilight 7:00 AM CST 5:21 PM CST
Nautical Twilight 6:26 AM CST 5:55 PM CST
Astronomical Twilight 5:52 AM CST 6:28 PM CST
Moon 2:59 PM CST (12/25) 5:03 AM CST (12/25)
Length of Visible Light 10h 20m
Length of Day
9h 19m
Waxing Gibbous, 94% of the Moon is Illuminated
Dec 25
Waxing Gibbous
Dec 28
Full
Jan 4
Last Quarter
Jan 11
New
Jan 18
First Quarter

Hourly Weather History & Observations

Time (CST) Temp. Windchill Dew Point Humidity Pressure Visibility Wind Dir Wind Speed Gust Speed Precip Events Conditions
12:55 AM 19.0 °F 7.5 °F 14.0 °F 81% 30.22 in 10.0 mi North 10.4 mph - N/A   Overcast
1:55 AM 19.0 °F 7.5 °F 14.0 °F 81% 30.24 in 10.0 mi NNE 10.4 mph - N/A   Overcast
2:55 AM 19.0 °F 6.8 °F 12.9 °F 77% 30.26 in 10.0 mi North 11.5 mph - N/A   Overcast
3:55 AM 18.0 °F 4.8 °F 12.9 °F 81% 30.26 in 10.0 mi NNE 12.7 mph - N/A   Overcast
4:55 AM 18.0 °F 5.4 °F 12.9 °F 81% 30.26 in 10.0 mi North 11.5 mph - N/A   Overcast
5:55 AM 17.1 °F 5.8 °F 12.0 °F 81% 30.28 in 10.0 mi NNE 9.2 mph - N/A   Overcast
6:55 AM 16.0 °F 3.6 °F 12.0 °F 84% 30.30 in 10.0 mi North 10.4 mph - N/A   Overcast
7:55 AM 16.0 °F 2.9 °F 10.9 °F 81% 30.30 in 10.0 mi North 11.5 mph - N/A   Overcast
8:55 AM 15.1 °F 3.3 °F 10.9 °F 84% 30.36 in 10.0 mi North 9.2 mph - N/A   Overcast
9:55 AM 16.0 °F 3.6 °F 10.9 °F 81% 30.39 in 10.0 mi North 10.4 mph - N/A   Overcast
10:19 AM 15.8 °F 2.7 °F 10.4 °F 79% 30.34 in 10.0 mi North 11.5 mph - N/A   Scattered Clouds
10:55 AM 17.1 °F 3.6 °F 10.0 °F 74% 30.39 in 10.0 mi North 12.7 mph - N/A   Clear
11:55 AM 18.0 °F 3.1 °F 10.9 °F 74% 30.30 in 10.0 mi NNE 16.1 mph - N/A   Clear
12:55 PM 19.9 °F 5.2 °F 12.0 °F 71% 30.30 in 10.0 mi NNE 17.3 mph - N/A   Clear
1:55 PM 21.0 °F 6.2 °F 12.9 °F 71% 30.27 in 10.0 mi North 18.4 mph 23.0 mph N/A   Clear
2:55 PM 21.0 °F 5.7 °F 12.9 °F 71% 30.28 in 10.0 mi North 19.6 mph 24.2 mph N/A   Clear
3:55 PM 19.9 °F 9.3 °F 12.9 °F 74% 30.31 in 10.0 mi North 9.2 mph 21.9 mph N/A   Clear
4:55 PM 18.0 °F 4.8 °F 10.9 °F 74% 30.32 in 10.0 mi North 12.7 mph - N/A   Clear
5:55 PM 17.1 °F 1.5 °F 10.9 °F 77% 30.33 in 10.0 mi North 17.3 mph - N/A   Partly Cloudy
6:55 PM 16.0 °F 1.7 °F 10.0 °F 77% 30.34 in 10.0 mi North 13.8 mph - N/A   Clear
7:55 PM 14.0 °F -1.4 °F 9.0 °F 80% 30.33 in 10.0 mi North 15.0 mph - N/A   Overcast
8:55 PM 12.9 °F -2.8 °F 8.1 °F 81% 30.31 in 10.0 mi North 15.0 mph - N/A   Overcast
9:55 PM 12.9 °F -2.8 °F 8.1 °F 81% 30.29 in 10.0 mi North 15.0 mph 21.9 mph N/A   Overcast
10:55 PM 12.9 °F -0.9 °F 8.1 °F 81% 30.28 in 10.0 mi North 11.5 mph - N/A   Overcast
11:55 PM 14.0 °F -0.2 °F 8.1 °F 77% 30.27 in 10.0 mi North 12.7 mph - N/A   Overcast